COSMOS 2558 (53323 NORAD) Tracking and Keplerian Element Data

This shows tracking and keplerian element data for the satellite.

Feedback or suggestion? Click here.




ElementValue
Catalog53323
NameCOSMOS 2558
Epoch Orbit1710
Epoch Day324.87396295
Epoch Year2022
RAAN61.5412
Inclination97.1952
Eccentricity0.0009876
Argument of Perigee218.5666
Mean Anonmoly141.4876
Mean Motion15.4094945
Decay Rate0.00016252
L11 53323U 22089A 22324.87396295 .00016252 00000+0 39581-3 0 9993
L22 53323 97.1952 61.5412 0009876 218.5666 141.4876 15.40949450 17105



Live tracking and technical data element details for COSMOS 2558 (NORAD 53323). COSMOS 2558 can be tracked NOW for your location showing map with azimuth and elevation plus other details from your city location.







IsCatalogInMostPopularTable: catalog: 53323, numindb: 5
Update: records affected: 1



GetName: 53323 COSMOS 2558

Hit Count: updated at: Thu, 08 Dec 2022 19:25:46 GMT